Total_Precipitation_Accumulation
0.99 1.02 0.93 1.07 1.13 1.13 1.13 1.11 1.01 0.95 0.92 0.80 0.78 0.76 0.68 0.52 0.53 0.57 0.73 0.61 0.71 0.96 1.05 0.96 0.86 0.73 0.66 0.63 0.75 0.88 0.95 0.91 0.98 1.07 0.99 0.97 0.91 0.81 0.71 0.63 0.54 0.52 0.48
0.88 1.05 0.98 0.97 1.04 1.22 1.28 1.21 1.10 1.10 1.06 0.88 0.84 0.90 0.80 0.70 0.68 0.69 0.80 0.67 0.49 0.54 0.79 0.93 0.94 0.86 0.76 0.74 0.78 0.94 1.05 0.94 0.89 0.94 0.98 1.01 0.99 0.83 0.72 0.62 0.57 0.55 0.50
0.82 0.99 0.95 0.86 0.83 0.99 1.16 1.28 1.30 1.23 1.08 0.97 0.89 0.88 0.80 0.75 0.74 0.87 0.87 0.81 0.62 0.42 0.51 0.72 0.84 0.88 0.87 0.90 0.88 0.94 1.02 0.94 0.91 0.93 0.97 0.96 0.95 0.92 0.83 0.74 0.70 0.73 0.68
0.61 0.80 0.88 0.79 0.78 0.94 1.14 1.30 1.39 1.41 1.27 1.20 1.16 1.01 0.89 0.82 0.79 0.87 0.91 0.92 0.89 0.69 0.59 0.53 0.59 0.70 0.82 0.91 0.98 0.98 0.96 0.90 0.86 0.88 0.90 0.84 0.80 0.78 0.76 0.77 0.81 0.80 0.84
0.53 0.73 0.91 0.94 0.95 1.04 1.15 1.20 1.37 1.42 1.45 1.34 1.23 1.06 0.95 0.91 0.83 0.78 0.90 0.94 0.97 0.89 0.80 0.55 0.44 0.46 0.61 0.80 0.94 1.00 1.02 0.90 0.78 0.77 0.71 0.69 0.70 0.69 0.70 0.69 0.74 0.70 0.72
0.65 0.84 1.06 1.15 1.26 1.28 1.30 1.44 1.70 1.68 1.51 1.46 1.36 1.14 0.94 0.90 0.89 0.87 0.84 0.93 1.01 0.96 0.85 0.72 0.58 0.38 0.41 0.59 0.81 0.94 1.03 1.00 0.90 0.87 0.76 0.65 0.61 0.64 0.67 0.60 0.62 0.58 0.58
0.79 1.00 1.21 1.44 1.57 1.44 1.42 1.59 1.83 1.97 1.78 1.62 1.60 1.44 1.22 0.99 0.93 0.93 0.89 0.96 1.05 1.06 1.00 0.97 0.83 0.67 0.52 0.46 0.50 0.68 0.89 1.01 1.01 1.03 0.98 0.86 0.73 0.64 0.64 0.53 0.50 0.51 0.52
0.90 0.95 1.15 1.35 1.42 1.46 1.48 1.56 1.73 2.02 1.94 1.75 1.80 2.05 1.82 1.50 1.05 0.85 0.94 1.00 1.10 1.10 1.01 0.89 0.89 0.83 0.73 0.71 0.42 0.38 0.56 0.84 1.07 1.07 1.09 1.05 0.93 0.72 0.67 0.55 0.50 0.49 0.51
1.19 1.16 1.19 1.32 1.40 1.53 1.54 1.57 1.61 1.79 1.90 1.84 1.87 2.27 2.10 1.85 1.66 1.16 0.90 0.98 1.10 1.18 1.12 1.04 0.99 0.96 0.89 0.86 0.72 0.41 0.34 0.48 0.85 1.07 1.17 1.17 1.03 0.84 0.74 0.64 0.60 0.54 0.53
1.50 1.47 1.48 1.56 1.50 1.49 1.46 1.47 1.47 1.61 1.88 1.93 1.86 1.79 1.75 1.74 1.96 1.67 1.17 1.02 1.07 1.08 1.11 1.05 1.06 1.10 1.12 1.02 0.91 0.65 0.39 0.37 0.63 1.03 1.32 1.30 1.07 0.91 0.80 0.77 0.71 0.68 0.60
2.08 2.00 1.92 1.77 1.59 1.51 1.51 1.54 1.54 1.60 1.69 1.77 1.74 1.69 1.69 1.63 1.47 1.57 1.51 1.26 1.09 0.99 1.03 1.09 1.11 1.12 1.21 1.21 1.12 0.87 0.59 0.40 0.49 0.83 1.19 1.37 1.29 1.10 0.94 0.84 0.76 0.71 0.61
2.03 1.97 1.84 1.61 1.44 1.38 1.44 1.55 1.57 1.60 1.59 1.63 1.60 1.50 1.50 1.50 1.41 1.49 1.41 1.40 1.39 1.06 0.94 0.96 1.02 1.04 1.05 1.21 1.18 1.25 0.92 0.61 0.48 0.61 0.83 1.11 1.31 1.37 1.24 1.10 0.90 0.80 0.70
1.42 1.45 1.45 1.41 1.35 1.30 1.37 1.54 1.62 1.65 1.65 1.61 1.54 1.46 1.49 1.40 1.47 1.64 1.62 1.50 1.43 1.12 0.91 0.80 0.83 0.91 0.93 1.06 1.21 1.41 1.17 0.89 0.62 0.54 0.60 0.75 0.92 1.17 1.38 1.44 1.35 1.19 1.09
1.24 1.25 1.32 1.32 1.31 1.32 1.33 1.40 1.50 1.62 1.64 1.58 1.54 1.59 1.55 1.40 1.48 1.50 1.49 1.62 1.48 1.25 0.99 0.72 0.66 0.72 0.84 0.91 1.13 1.36 1.01 0.95 0.77 0.61 0.55 0.58 0.68 0.77 0.93 1.18 1.44 1.55 1.55
0.93 1.04 1.14 1.20 1.16 1.17 1.21 1.30 1.43 1.49 1.57 1.64 1.63 1.62 1.62 1.55 1.55 1.53 1.61 1.64 1.61 1.39 1.11 0.84 0.70 0.61 0.72 0.81 1.07 1.04 0.88 0.92 0.84 0.71 0.62 0.56 0.56 0.60 0.69 0.74 0.87 1.03 1.18
0.82 0.89 0.86 0.82 0.81 0.86 0.89 0.99 1.16 1.25 1.29 1.37 1.40 1.44 1.46 1.48 1.53 1.54 1.60 1.66 1.61 1.48 1.29 1.05 0.86 0.73 0.79 0.78 0.92 0.88 0.93 1.10 0.94 0.79 0.68 0.60 0.56 0.56 0.56 0.53 0.54 0.54 0.59
0.52 0.60 0.55 0.52 0.58 0.62 0.59 0.68 0.78 0.89 0.98 1.03 1.04 1.08 1.15 1.22 1.31 1.36 1.47 1.54 1.57 1.50 1.24 1.12 0.96 0.85 0.89 0.92 0.94 0.91 0.97 1.00 0.91 0.84 0.72 0.62 0.58 0.55 0.55 0.52 0.48 0.45 0.43
0.22 0.29 0.32 0.32 0.40 0.51 0.52 0.58 0.63 0.65 0.71 0.75 0.78 0.85 0.91 0.98 1.08 1.15 1.22 1.31 1.43 1.47 1.36 1.21 1.07 0.95 0.85 0.88 1.05 1.11 1.10 1.03 1.01 1.09 1.00 0.83 0.73 0.64 0.58 0.54 0.49 0.45 0.43
0.16 0.20 0.23 0.26 0.29 0.39 0.50 0.56 0.58 0.54 0.53 0.52 0.52 0.56 0.66 0.74 0.87 0.95 1.01 1.09 1.23 1.27 1.35 1.25 1.18 1.09 0.93 0.87 1.00 1.03 1.12 1.30 1.21 1.28 1.40 1.22 0.97 0.81 0.70 0.65 0.59 0.52 0.48
0.16 0.15 0.14 0.16 0.24 0.34 0.43 0.51 0.55 0.52 0.49 0.49 0.49 0.50 0.53 0.54 0.62 0.73 0.86 1.04 1.19 1.32 1.36 1.29 1.24 1.21 1.11 1.02 1.08 1.14 1.24 1.34 1.40 1.27 1.31 1.29 1.23 1.10 0.92 0.80 0.77 0.70 0.64
0.12 0.08 0.06 0.08 0.16 0.22 0.26 0.40 0.46 0.45 0.48 0.45 0.47 0.51 0.52 0.49 0.49 0.53 0.55 0.73 0.94 1.16 1.28 1.34 1.35 1.36 1.28 1.20 1.10 1.17 1.29 1.43 1.55 1.56 1.47 1.33 1.29 1.16 1.04 0.94 0.86 0.81 0.79
0.09 0.07 0.05 0.05 0.07 0.08 0.14 0.21 0.30 0.40 0.47 0.50 0.51 0.54 0.52 0.47 0.52 0.51 0.49 0.52 0.62 0.77 0.94 1.07 1.17 1.22 1.25 1.32 1.38 1.39 1.42 1.50 1.58 1.58 1.47 1.50 1.45 1.33 1.16 0.98 0.96 0.95 0.91
0.04 0.04 0.04 0.04 0.04 0.04 0.05 0.08 0.18 0.34 0.48 0.49 0.48 0.61 0.67 0.61 0.60 0.64 0.66 0.60 0.54 0.53 0.66 0.84 0.97 1.03 1.10 1.20 1.39 1.44 1.47 1.48 1.40 1.46 1.34 1.41 1.38 1.26 1.18 1.14 1.14 1.05 1.01
0.02 0.03 0.05 0.07 0.05 0.02 0.02 0.03 0.09 0.24 0.39 0.43 0.43 0.55 0.80 0.84 0.74 0.70 0.75 0.85 0.77 0.61 0.59 0.64 0.78 0.90 0.95 1.10 1.41 1.63 1.60 1.39 1.32 1.38 1.30 1.32 1.28 1.18 1.12 1.11 1.15 1.05 1.00
0.03 0.03 0.04 0.06 0.05 0.04 0.04 0.04 0.08 0.19 0.29 0.33 0.37 0.49 0.65 0.80 0.75 0.71 0.71 0.78 0.82 0.72 0.66 0.66 0.62 0.70 0.83 0.99 1.25 1.50 1.61 1.55 1.39 1.34 1.20 1.13 1.17 1.18 1.21 1.17 1.11 1.09 1.00
0.03 0.03 0.03 0.03 0.03 0.02 0.04 0.05 0.07 0.13 0.17 0.17 0.24 0.40 0.55 0.55 0.52 0.58 0.69 0.80 0.89 0.74 0.64 0.72 0.71 0.74 0.76 0.94 1.26 1.46 1.56 1.54 1.42 1.38 1.29 1.18 1.17 1.20 1.38 1.35 1.18 1.12 1.05